SWISSCUBE

Last updated on Wed Sep 09 2026 00:03:15 GMT+0000 (Coordinated Universal Time)

1 35932U 09051B 26251.22341429 .00000706 00000+0 14875-3 0 9990 2 35932 98.3948 160.5289 0006100 325.0594 35.0206 14.62614624901294
UTC large
Height (km)
Speed (km/s)
/
Latitude / Longitude
Inclination (degrees)
Orbital Period (minutes)
Azimuth
Elevation
Range (km)
Doppler Factor

Next 0 passes for location: London (51.5072 / 0.1276)

No passes found over London.
SWISSCUBE